Torrington, WY

10:11 AM MDT on July 21, 2017 (GMT -0600)
Torrington Municipal

Weather History for KTOR - January, 2012

Change the Weather History Date:

Tuesday, January 3, 2012

  Actual Average Record
Temperature  
Mean Temperature 44 °F 27 °F  
Max Temperature 60 °F 41 °F 60 °F (2012)
Min Temperature 28 °F 14 °F -11 °F (2015)
Degree Days  
Heating Degree Days 21 38  
Month to date heating degree days 100 114  
Since 1 July heating degree days 2772 2870  
Cooling Degree Days 0 0  
Month to date cooling degree days 0 0  
Year to date cooling degree days 0 0  
Moisture  
Dew Point 19 °F    
Average Humidity 44    
Maximum Humidity 69    
Minimum Humidity 19    
Precipitation  
Precipitation 0.00 in 0.01 in 0.14 in (2015)
Month to date precipitation 0.00 0.03  
Year to date precipitation 0.00 0.03  
Sea Level Pressure  
Sea Level Pressure 30.16 in    
Wind  
Wind Speed 12 mph (WNW)    
Max Wind Speed 30 mph    
Max Gust Speed 41 mph    
Visibility 10 miles    
Events      
T = Trace of Precipitation, MM = Missing Value Source: NWS Daily Summary

Daily Weather History Graph

Daily Weather History Graph

Search for Another Location

Airport or City:

Trip Planner

Search our weather history database for the weather conditions in past years. The results will help you decide how hot, cold, wet, or windy it might be!

Date:

Astronomy

Jan. 03, 2012 Rise Set
Actual Time 7:24 AM MST 4:37 PM MST
Civil Twilight 6:53 AM MST 5:08 PM MST
Nautical Twilight 6:18 AM MST 5:43 PM MST
Astronomical Twilight 5:44 AM MST 6:17 PM MST
Moon 12:27 PM MST (1/3) 2:16 AM MST (1/3)
Length of Visible Light 10h 15m
Length of Day
9h 12m
Waxing Gibbous, 73% of the Moon is Illuminated
Jan 3
Waxing Gibbous
Jan 9
Full
Jan 16
Last Quarter
Jan 23
New
Jan 30
First Quarter

Hourly Weather History & Observations

Time (MST) Temp. Windchill Dew Point Humidity Pressure Visibility Wind Dir Wind Speed Gust Speed Precip Events Conditions
12:53 AM 39.0 °F 34.0 °F 19.9 °F 46% 30.14 in 10.0 mi WNW 6.9 mph - N/A   Clear
1:53 AM 46.0 °F 43.9 °F 19.0 °F 34% 30.10 in 10.0 mi WSW 4.6 mph - N/A   Clear
2:53 AM 41.0 °F 37.1 °F 19.9 °F 43% 30.12 in 10.0 mi NW 5.8 mph - N/A   Clear
3:53 AM 50.0 °F - 19.9 °F 31% 30.08 in 10.0 mi West 11.5 mph - N/A   Clear
4:09 AM 53.6 °F - 19.4 °F 26% 30.11 in 10.0 mi West 13.8 mph 24.2 mph N/A   Clear
4:53 AM 50.0 °F - 19.0 °F 29% 30.11 in 10.0 mi West 11.5 mph 21.9 mph N/A   Clear
5:53 AM 48.9 °F - 18.0 °F 29% 30.09 in 10.0 mi West 5.8 mph - N/A   Clear
6:53 AM 51.1 °F - 17.1 °F 26% 30.09 in 10.0 mi West 18.4 mph 34.5 mph N/A   Clear
7:53 AM 51.1 °F - 16.0 °F 25% 30.12 in 10.0 mi West 23.0 mph 29.9 mph N/A   Clear
8:53 AM 50.0 °F - 16.0 °F 26% 30.14 in 10.0 mi West 16.1 mph - N/A   Clear
9:53 AM 50.0 °F - 15.1 °F 25% 30.15 in 10.0 mi West 16.1 mph - N/A   Clear
10:53 AM 51.1 °F - 16.0 °F 25% 30.14 in 10.0 mi West 13.8 mph - N/A   Clear
11:53 AM 55.9 °F - 17.1 °F 22% 30.09 in 10.0 mi West 15.0 mph 21.9 mph N/A   Clear
12:53 PM 60.1 °F - 17.1 °F 19% 30.06 in 10.0 mi WNW 15.0 mph 21.9 mph N/A   Clear
1:53 PM 59.0 °F - 17.1 °F 20% 30.04 in 10.0 mi NW 20.7 mph 29.9 mph N/A   Clear
2:53 PM 54.0 °F - 19.9 °F 26% 30.12 in 10.0 mi North 24.2 mph 29.9 mph N/A   Clear
3:53 PM 51.1 °F - 21.0 °F 31% 30.13 in 10.0 mi North 10.4 mph 18.4 mph N/A   Clear
4:53 PM 44.1 °F 37.4 °F 19.9 °F 38% 30.17 in 10.0 mi North 13.8 mph - N/A   Clear
5:53 PM 41.0 °F 36.4 °F 21.9 °F 47% 30.23 in 10.0 mi NNW 6.9 mph - N/A   Clear
6:53 PM 37.0 °F 29.8 °F 21.9 °F 54% 30.26 in 10.0 mi NW 10.4 mph - N/A   Clear
7:53 PM 35.1 °F 27.9 °F 21.0 °F 57% 30.29 in 10.0 mi WNW 9.2 mph - N/A   Clear
8:53 PM 34.0 °F 27.2 °F 21.0 °F 59% 30.31 in 10.0 mi West 8.1 mph - N/A   Clear
9:53 PM 30.0 °F 24.1 °F 19.9 °F 66% 30.36 in 10.0 mi NW 5.8 mph - N/A   Clear
10:53 PM 30.0 °F 24.1 °F 21.0 °F 69% 30.35 in 10.0 mi West 5.8 mph - N/A   Clear
11:53 PM 30.0 °F 22.4 °F 21.0 °F 69% 30.32 in 10.0 mi West 8.1 mph - N/A   Clear